Время (UTC), дата Ветер
(°,м/с) 
Видим.   Явления Облачность Т
(°С)
Тd
(°С)
f(%) Тe
(°С)
Pmin
(гПа)
dP
(гПа)
Po
(мм)
O2
(г/м3)
Тmin Tmax R s Состояние
почвы
00 01.04.11 360 (С) 0400 м  туман  ?/?  
+6.7 +6.6 99 +6  1024.9  0.5  728  285           
03 01.04.11 020 (С) 0200 м  туман{морось}  10/0 
[]
+6 +5.9 99 +6  1026.5  1.3  729  286           
06 01.04.11 070 (В) 4000 м  дымка{морось, туман}  10/8 120 м кучево-дожд., средняя 
[Cb calv|Ac und]
+6.3 +6.1 99 +4  1028.4  1.8  730  287  +5.9       
09 01.04.11 060 (СВ) >10 км    10/8 360 м кучево-дожд., средняя 
[Cb calv|Ac und]
+8.1 +5.7 85 +6  1028.8  0.7  731  285           
12 01.04.11 080 (В) >10 км    10/8 600 м кучево-дожд., средняя 
[Cb calv|Ac und]
+8.6 +3.8 72 +6  1028.1  -0.6  730  285           
15 01.04.11 070 (В) >10 км    10/5 600 м кучево-дожд., средняя 
[Cb calv|Ac und]
+6.6 +4.4 86 +4  1028.8  0.3  731  287           
18 01.04.11 090 (В) >10 км    10/8 840 м кучево-дожд., средняя 
[Cb calv|Ac und]
+5.1 +3.8 91 +2  1029.8  0.6  731  289    +8.8       
21 01.04.11 090 (В) >10 км    10/8 700 м кучево-дожд., средняя 
[Cb calv|Ac und]
+5.1 +3.8 91 +2  1029  -0.8  730  288           
00 02.04.11 110 (В) >10 км    10/8 540 м средняя 
[Sc|Ac und]
+4 +0.7 79 +1  1028.5  -0.7  730  290           
03 02.04.11 100 (В) >10 км    10/8 480 м средняя 
[Sc|Ac und]
+2.8 -2.3 69 -1  1028.5  -0.2  730  291           
06 02.04.11 110 (В) 10  >10 км    10/5 480 м средняя 
[Sc|Ac und]
+4 +1.2 82 1027.9  -0.3  729  289  +2.5         
09 02.04.11 110 (В) 14-19{19}  >10 км    8/8 300 м 
[Sc]
+8 +2.3 67 +4  1026  -1  729  285           
12 02.04.11 110 (В) 14-18{19}  >10 км    9/5 600 м средняя 
[Sc|Ac trans]
+9.1 +2.2 62 +6  1024.6  -1.2  728  283           
15 02.04.11 110 (В) 12{20}  >10 км    10/5 600 м средняя 
[Sc|Ac und]
+7.2 +2.2 70 +4  1024.6  -0.3  728  285           
18 02.04.11 100 (В) 13{18}  >10 км    10/5 600 м средняя 
[Sc|Ac und]
+4.7 +1 77 1024.9  -0.3  727  288    +10.1       
21 02.04.11 110 (В) 12  >10 км    10/5 750 м средняя 
[Sc|Ac und]
+1.7 -1.5 79 -3  1024.2  -1.2  727  291           
00 03.04.11 110 (В) 10  >10 км    10/6 480 м средняя 
[Sc|Ac und]
+0.5 -1.3 88 -4  1022.8  -1.6  725  292           
03 03.04.11 110 (В) 12  >10 км    10/6 600 м средняя 
[Sc|Ac und]
+1.2 -1.2 84 -4  1022.1  -0.4  725  291           
06 03.04.11 110 (В) 13  >10 км    10/10 400 м 
[Sc]
+2.7 +0 82 -2  1022.1  -0.4  725  289  +0.5         
09 03.04.11 110 (В) 14{18}  >10 км    10/10 300 м 
[Sc]
+5.2 +0.5 72 +1  1021.9  0.3  725  287           
12 03.04.11 110 (В) 13{21}  >10 км    10/10 600 м 
[Sc]
+5.5 +1.5 75 +1  1021.6  -0.2  725  286           
15 03.04.11 100 (В) 13{21}  >10 км    10/10 300 м 
[Sc]
+4.8 +2 82 1022  0.2  725  287           
18 03.04.11 110 (В) 10{19}  >10 км  слаб. дождь  10/10 200 м 
[St]
+3.4 +2.3 93 -1  1023.5  1.1  726  289           
21 03.04.11 100 (В) 10  10 км  в посл. час дождь  10/10 150 м 
[St]
+2.5 +1.8 95 -2  1022.2  -1.4  725  289           
00 04.04.11 110 (В) 12  >10 км  {дождь}  10/10 180 м 
[St]
+2.5 +1 90 -2  1020.4  -1.7  724  289           
03 04.04.11 110 (В) 11  >10 км    10/10 360 м 
[Sc]
+2.7 +0.5 85 -2  1018.9  -1.4  723  288           
06 04.04.11 110 (В) 12  >10 км    10/10 360 м 
[Sc]
+3.2 +1.1 86 -1  1017.5  -1.2  722  287  +2.4         
09 04.04.11 110 (В) 15-19{20}  >10 км    10/10 300 м 
[Sc]
+4.7 +1.1 77 1016.3  -0.9  721  285           
12 04.04.11 110 (В) 15{21}  >10 км    10/10 300 м 
[Sc]
+6.9 +1.7 69 +3  1015.2  -0.6  721  283           
15 04.04.11 110 (В) 10{19}  >10 км    10/6 600 м средняя 
[Sc|Ac und]
+6.3 +1.2 70 +3  1015.2  -0.1  721  284           
18 04.04.11 100 (В) 9{18}  >10 км    10/6 720 м средняя 
[Sc|Ac und]
+3.7 +0.5 80 1015.4  -0.3  721  286    +7.5       
21 04.04.11 100 (В) >10 км    10/6 540 м средняя 
[Sc|Ac und]
+2.7 -0.1 82 -1  1013.1  -2.3  719  287           
00 05.04.11 110 (В) >10 км    10/8 330 м средняя 
[Sc|Ac und]
+2.2 +0.4 88 1012  -1.1  718  287           
03 05.04.11 110 (В) н/о    н/о 
+2.1 +0.8 91 +1  1011.5  -0.5  718  287           
06 05.04.11 110 (В) >10 км    10/8 400 м средняя 
[Sc|Ac und]
+3.6 +1.3 85 +2  1011  -0.2  717  285  +2.1         
09 05.04.11 080 (В) 10 км    10/8 360 м средняя 
[Sc|Ac und]
+4.3 +2.3 87 +3  1010.5  -0.3  717  284           
12 05.04.11 210 (ЮЗ) 10 км    10/8 300 м средняя 
[Sc|Ac und]
+5.1 +2.8 85 +5  1010.7  0.3  717  283           
15 05.04.11 250 (З) >10 км    10/5 480 м средняя 
[Sc|Ac und]
+5.9 +3.3 83 +5  1011.3  0.3  718  283           
18 05.04.11 280 (З) >10 км    10/5 870 м средняя 
[Sc|Ac und]
+5.1 +3.5 89 +3  1012.1  0.6  718  284    +6.2       
21 05.04.11 360 (С) >10 км    10/3 600 м средняя 
[Sc|Ac und]
+4.2 +3.3 94 +4  1012  -0.2  718  284           
00 06.04.11 200 (Ю) >10 км  слаб. дождь  10/6 600 м средняя 
[Sc|Ac und]
+5.2 +3.8 91 +6  1011.4  -0.3  718  283           
03 06.04.11 100 (В) >10 км  слаб. ливневой дождь  10/5 900 м кучево-дожд., средняя 
[Cb cap|Ac und]
+4.3 +3.8 97 +5  1012  0.4  718  284           
06 06.04.11 070 (В) >10 км  {ливн. осадки, дождь}  10/6 330 м средняя 
[Sc diur, vesp|Ac und]
+7.8 +5.5 85 +9  1011.8  0.5  719  281  +3.9         
09 06.04.11 090 (В) >10 км    10/6 600 м средняя 
[Sc|Ac und]
+9.2 +5.3 77 +9  1012  0.4  719  279           
12 06.04.11 070 (В) >10 км    8/5 600 м средняя 
[Sc|Ac trans]
+11.9 +5.9 67 +12  1010.7  -0.7  718  276           
15 06.04.11 320 (СЗ) >10 км    10/8 150 м кучево-дожд., средняя 
[Cb calv|Ac und]
+7.3 +5.8 90 +5  1013.3  1.6  720  281           
18 06.04.11 300 (СЗ) 10 км  слаб. ливневой дождь  10/5 600 м кучево-дожд., средняя 
[Cb cap|Ac und]
+4.6 +3.8 94 +2  1014.4  0.5  720  285    +2.3       
21 06.04.11 300 (СЗ) 10 км  слаб. ливневой дождь  10/8 300 м кучево-дожд., средняя 
[Cb cap|Ac und]
+3.8 +3.2 96 +3  1014.5  0.1  720  286           
00 07.04.11 260 (З) 10 км  {ливн. осадки}  10/6 300 м кучево-дожд., средняя 
[Cb calv|Ac und]
+3.5 +2.5 93 +2  1013.8  -0.7  719  286           
03 07.04.11 260 (З) 10 км    10/6 300 м кучево-дожд., средняя 
[Cb calv|Ac und]
+3.4 +2.4 93 +1    -0.9  760  302           
06 07.04.11 250 (З) 4000 м  дымка  10/8 400 м кучево-дожд., средняя 
[Cb cap|Ac und]
+4.5 +2.1 84 +2  1012.9  0.2  719  285  +3.3       
09 07.04.11 260 (З) 10  10 км    10/6 540 м кучево-дожд., средняя 
[Cb cap|Ac und]
+6.3 +2.2 75 +3  1011.7  -0.8  718  282           
12 07.04.11 260 (З) 11  4000 м  слаб. ливневой дождь  10/8 420 м кучево-дожд., средняя 
[Cb cap|Ac und]
+5.4 +3.6 88 +2  1011.1  -0.7  718  283           
15 07.04.11 270 (З) >10 км  слаб. ливневой дождь  10/4 480 м кучево-дожд., средняя 
[Cb cap|Ac As]
+6 +3.2 82 +3  1010.5  -0.5  717  282           
18 07.04.11 270 (З) >10 км  {ливн. осадки}  8/0 средняя 
[Ac trans]
+6 +2.1 76 +3  1009.8  -0.7  717  282    +7.1     
21 07.04.11 260 (З) >10 км    8/0 средняя 
[Ac As]
+6.1 +2.2 76 +3  1008.4  -1.3  716  282           
00 08.04.11 180 (Ю) >10 км  слаб. ливневой дождь  10/8 630 м кучево-дожд., средняя 
[Cb cap|Ac und]
+4.5 +3.1 91 +3  1006.9  -1.7  715  283           
03 08.04.11 240 (ЮЗ) >10 км  в посл. час ливневой дождь  10/8 630 м кучево-дожд., средняя 
[Cb calv|Ac und]
+4.8 +3 88 +4  1006  -0.8  714  282           
06 08.04.11 170 (Ю) >10 км    6/3 600 м средняя 
[Sc|Ac trans]
+10.1 +4.6 69 +9  1003.3  -1.6  713  276  +4.2       
09 08.04.11 190 (Ю) >10 км    8/3 1000 м средняя 
[Sc|Ac trans]
+14.3 +1.7 42 +14  999.7  -2.7  711  272           
12 08.04.11 150 (ЮВ) >10 км    8/0 средняя, верхняя 
[Ac trans|Ci fib]
+17.3 -0.4 30 +18  996.4  -2.6  709  269           
15 08.04.11 340 (С) >10 км    9/0 средняя 
[Ac trans]
+14.4 +2.6 45 +15  994.9  -1.9  707  270           
18 08.04.11 320 (СЗ) >10 км  слаб. ливневой дождь  10/6 600 м кучево-дожд., средняя 
[Cb cap|Ac und]
+8 +6.2 88 +7  996.3  0.3  708  276    +17.5  0.5     
21 08.04.11 290 (З) 10  >10 км  слаб. ливневой дождь  10/8 600 м кучево-дожд., средняя 
[Cb cap|Ac und]
+6.5 +5.1 91 +3  997.4  0.7  708  278           
00 09.04.11 270 (З) >10 км  слаб. ливневой дождь  10/8 300 м кучево-дожд., средняя 
[Cb cap|Ac und]
+2.8 +1.8 93 -1  999.8  1.6  709  283           
03 09.04.11 250 (З) >10 км  в посл. час ливневой дождь  10/6 400 м кучево-дожд., средняя 
[Cb cap|Ac und]
+3.3 +1.5 88 1001  1.2  710  282           
06 09.04.11 260 (З) 13{19}  >10 км  {ливн. осадки}  6/0 верхняя 
[Ci fib]
+7.2 -0.2 59 +3  999.4  -0.8  710  279         
09 09.04.11 260 (З) 11{21}  >10 км    8/1 600 м верхняя 
[Cu hum|Ci fib]
+12 -2 38 +10  996.5  -1.9  708  274           
12 09.04.11 230 (ЮЗ) >10 км    9/3 600 м верхняя 
[Cu hum|Ci fib]
+13 -1.9 35 +12  994.6  -1.6  707  272           
15 09.04.11 260 (З) >10 км  слаб. ливневой дождь  10/8 630 м кучево-дожд., средняя 
[Cb cap|Ac und]
+6.2 +3.1 81 +4  997.8  1.9  708  279           
18 09.04.11 190 (Ю) 10 км  слаб. ливневой дождь  10/8 750 м кучево-дожд., средняя 
[Cb cap|Ac und]
+6.7 +2.6 75 +4  996.9  1.9  708  278    +13  0.3     
21 09.04.11 250 (З) 10  >10 км  {ливн. осадки}  10/5 660 м кучево-дожд., средняя 
[Cb calv|Ac und]
+6 +1.3 72 +3  997.5  1.9  708  279           
00 10.04.11 270 (З) 10{21}  >10 км  {ливн. осадки}  10/4 600 м кучево-дожд., средняя 
[Cb calv|Ac und]
+3 +1 87 -1  999.7  1.5  709  282           
03 10.04.11 260 (З) 11  >10 км    6/3 600 м кучево-дожд., средняя 
[Cb calv|Ac trans]
+3 +1.1 87 -1  1000.8  710  283           
06 10.04.11 250 (З) 11  >10 км    8/8 360 м кучево-дожд. 
[Cb calv]
+5 +2.5 84 +1  1001.8  1.4  711  281  +2.6    0.3     
09 10.04.11 270 (З) 11{19}  >10 км    5/3 300 м кучево-дожд., средняя 
[Cb calv|Ac trans]
+10 -0.5 48 +7  1001  0.1  711  276           
12 10.04.11 290 (З) 10{18}  >10 км    4/4 300 м кучево-дожд. 
[Cb calv]
+9 +2.9 66 +6  1001  -0.2  711  277           
15 10.04.11 280 (З) >10 км    4/4 300 м кучево-дожд. 
[Cb calv]
+5.8 +1.8 75 +3  1003.4  1.7  712  281           
18 10.04.11 300 (СЗ) >10 км    1/1 600 м кучево-дожд. 
[Cb calv]
+3.4 +1.1 85 +1  1005.5  1.5  713  284    +12       
21 10.04.11 180 (Ю) >10 км    3/0 средняя 
[Ac trans]
+0.8 -0.5 91 -1  1006.9  0.8  714  287           
00 11.04.11 290 (З) >10 км    10/3 600 м средняя 
[Sc|Ac und]
+3.2 +1 86 +2  1005.7  -0.7  714  284           
03 11.04.11 250 (З) >10 км  дымка{дождь}  10/3 300 м средняя 
[Sc|Ac und]
+1.6 +0.6 93 1007.3  1.1  715  286           
06 11.04.11 150 (ЮВ) 0400 м  слаб. ливневой дождь со снегом{туман}  ?/?  
+0 -0.3 98 -2  1008.6  0.9  715  288  +0    0.3     
09 11.04.11 190 (Ю) >10 км  в посл. час ливневой дождь{туман}  10/8 360 м кучево-дожд., средняя 
[Cb calv|Ac und]
+3.5 +2.2 91 +2  1008.3  0.4  716  284           
12 11.04.11 200 (Ю) >10 км  {ливн. осадки, туман}  10/6 300 м кучево-дожд., средняя 
[Cb calv|Ac und]
+5.1 +2.1 81 +3  1008.3  0.3  716  283           
15 11.04.11 190 (Ю) >10 км  {ливн. осадки}  10/6 600 м кучево-дожд., средняя 
[Cb cap|Ac und]
+4.3 +1.7 83 +3  1008.6  0.2  716  284           
18 11.04.11 300 (СЗ) >10 км  {ливн. осадки}  10/6 570 м кучево-дожд., средняя 
[Cb cap|Ac und]
+3.1 +1.6 90 +3  1010.9  1.9  717  285    +6.3     
21 11.04.11 170 (Ю) >10 км  в посл. час ливневой дождь  10/4 600 м кучево-дожд., средняя 
[Cb calv|Ac und]
+1.7 +0.9 94 +1  1011.6  0.4  718  287           
00 12.04.11 200 (Ю) н/о    н/о 
+0.9 -0.1 93 +2  1011.2  -0.5  717  288           
03 12.04.11 180 (Ю) >10 км    10/4 1000 м средняя, верхняя 
[Sc|Ac As|Ci fib]
+0.1 -1.7 88 +1  1011.7  0.3  717  289           
06 12.04.11 120 (ЮВ) >10 км    8/4 600 м средняя, верхняя 
[Sc|Ac trans|Ci fib]
+4.5 +1.1 79 +4  1011.2  0.4  718  284  -0.4       
09 12.04.11 080 (В) >10 км    10/6 900 м кучево-дожд., средняя 
[Cb calv|Ac und]
+5.5 +0.3 69 +4  1010.8  -0.2  718  283           
12 12.04.11 110 (В) >10 км    10/8 930 м кучево-дожд., средняя 
[Cb calv|Ac und]
+6.8 +1.7 70 +5  1009.6  -0.9  717  282           
15 12.04.11 150 (ЮВ) >10 км  {ливн. осадки}  10/5 1000 м кучево-дожд., средняя 
[Cb calv|Ac und]
+4.3 +2.3 87 +3  1010.3  -0.1  717  284           
18 12.04.11 140 (ЮВ) >10 км  {ливн. осадки}  10/3 1000 м кучево-дожд., средняя 
[Cb calv|Ac und]
+2.6 +1.1 90 +1  1011.7  718  286    +6.8  0.3     
21 12.04.11 100 (В) >10 км    10/4 600 м кучево-дожд., средняя 
[Cb calv|Ac und]
+2 +1.1 94 +3  1011.2  -0.6  717  287           
00 13.04.11 080 (В) >10 км    10/10 270 м 
[St]
+2.5 +2 96 +3  1011.3  0.2  717  286           
03 13.04.11 230 (ЮЗ) 10 км  слаб. ливневой дождь  10/8 150 м кучево-дожд., средняя 
[Cb calv|Ac und]
+2.3 +1.9 97 +3  1011.9  0.5  718  286           
06 13.04.11 190 (Ю) >10 км  слаб. ливневой дождь  10/6 120 м кучево-дожд., средняя 
[Cb cap|Ac und]
+3.4 +2.3 93 +3  1012.9  1.1  719  286  -7.2       
09 13.04.11 240 (ЮЗ) >10 км  слаб. ливневой дождь  10/8 330 м кучево-дожд., средняя 
[Cb cap|Ac und]
+5.6 +2.3 79 +5  1013.2  0.7  719  284           
12 13.04.11 320 (СЗ) >10 км  слаб. ливневой дождь  10/5 600 м кучево-дожд., средняя 
[Cb cap|Ac und]
+5.5 +2 78 +3  1014  0.8  720  284           
15 13.04.11 290 (З) >10 км  {ливн. осадки}  8/5 600 м кучево-дожд., средняя 
[Cb calv|Ac trans]
+8 -0.6 55 +7  1014  0.5  720  282    +9.1       
18 13.04.11 260 (З) >10 км  {ливн. осадки}  3/0 средняя 
[Ac trans]
+2.4 -1.4 76 +1  1016  0.8  721  288    +9.1  0.3     
21 13.04.11 280 (З) >10 км    н/о 
+3.9 -1.1 70 +2  1015.8  0.1  721  286           
00 14.04.11 280 (З) >10 км    ясно 
+2.2 -1.5 77 1016.1  -0.1  721  288           
03 14.04.11 280 (З) >10 км    1/0 верхняя 
[Ci fib]
+0.3 -2.8 80 1016.3  -0.2  721  290           
06 14.04.11 140 (ЮВ) >10 км    3/0 верхняя 
[Ci]
+7.6 +0.3 60 +7  1014.4  -0.4  720  282  -0.9         
09 14.04.11 180 (Ю) >10 км    3/1 1000 м верхняя 
[Cu hum|Ci fib]
+12.7 -0.3 41 +13  1011.7  -0.4  719  277           
12 14.04.11 090 (В) >10 км    5/0 верхняя 
[Ci fib]
+15.1 -0 36 +16  1009.6  -1.5  718  274           
15 14.04.11 090 (В) >10 км    4/0 верхняя 
[Ci fib]
+13.1 +3.9 54 +13  1009.3  -0.7  718  275    +15.8       
18 14.04.11 140 (ЮВ) >10 км    8/0 средняя, верхняя 
[Ac trans|Ci fib]
+9.3 +4.1 70 +8  1010.3  0.3  718  279    +15.8  0.3     
21 14.04.11 150 (ЮВ) >10 км    5/0 средняя, верхняя 
[Ac trans|Ci fib]
+7.9 +1.7 65 +6  1009.8  -0.8  717  280           
00 15.04.11 160 (Ю) >10 км    8/0 средняя 
[Ac trans]
+6.7 +1.4 69 +6  1008.9  -1  716  281           
03 15.04.11 250 (З) >10 км    9/4 600 м кучево-дожд., средняя 
[Cb calv|Ac trans]
+7.9 +0.7 60 +8  1009.7  -1  717  281           
06 15.04.11 310 (СЗ) >10 км  в посл. час ливневой дождь  10/5 800 м кучево-дожд., средняя 
[Cb calv|Ac und]
+12.2 +4.3 58 +11  1009.9  718  276  +6.1         
09 15.04.11 290 (З) >10 км    10/3 600 м верхняя 
[Cu hum|Ci fib]
+12.8 +5.7 62 +11  1010.5  0.6  718  276           
12 15.04.11 300 (СЗ) >10 км  слаб. ливневой дождь  9/5 600 м кучево-дожд., средняя 
[Cb cap|Ac trans]
+11.8 +4.2 60 +10  1011.8  1.1  719  277           
15 15.04.11 300 (СЗ) >10 км  слаб. ливневой дождь  10/0 кучево-дожд., средняя 
[Cb cap|Ac und]
+7.2 +4 80 +5  1013.5  0.8  720  282           
18 15.04.11 190 (Ю) 10 км  слаб. ливневой дождь  10/8 570 м кучево-дожд., средняя 
[Cb cap|Ac und]
+5.4 +4.8 96 +5  1015.6  0.8  721  284    +13.7  0.0     
21 15.04.11 140 (ЮВ) 10 км  слаб. ливневой дождь  10/6 400 м кучево-дожд., средняя 
[Cb cap|Ac und]
+5.3 +5 98 +6  1014.5  -1  720  284           
00 16.04.11 230 (ЮЗ) 4000 м  слаб. ливневой дождь  10/8 180 м средняя 
[Ac und]
+5.2 +4.9 98 +4  1014.5  -0.1  720  284           
03 16.04.11 240 (ЮЗ) >10 км  {ливн. осадки}  10/5 540 м кучево-дожд., средняя 
[Cb calv|Ac und]
+5.3 +2.9 84 +3  1014.3  -0.2  720  284           
06 16.04.11 280 (З) >10 км  {ливн. осадки}  4/3 600 м кучево-дожд., средняя, верхняя 
[Cb cap|Ac cuf|Ci fib]
+9.5 +2.1 60 +8  1014.5  0.9  721  280  +4.8    16    влажная 
09 16.04.11 260 (З) >10 км    6/3 600 м кучево-дожд., средняя 
[Cb cap|Ac trans]
+12.9 +2 47 +12  1013.2  -0.6  720  277           
12 16.04.11 190 (Ю) >10 км    8/4 600 м кучево-дожд., средняя 
[Cb cap|Ac trans]
+13.1 +2.8 50 +12  1013  -0.2  720  276           
15 16.04.11 300 (СЗ) >10 км    9/4 600 м кучево-дожд., средняя 
[Cb cap|Ac As]
+9.9 +4 67 +9  1015.1  1.4  721  280    +14.1       
18 16.04.11 280 (З) >10 км    10/5 700 м кучево-дожд., средняя 
[Cb calv|Ac und]
+7.6 +2.6 71 +6  1017.2  1.5  722  283    +14.1  0.3     
21 16.04.11 250 (З) >10 км    10/5 1000 м средняя 
[Sc|Ac und]
+6 +2.6 79 +4  1017.7  0.2  723  284           
00 17.04.11 260 (З) >10 км  слаб. дождь  10/8 480 м средняя 
[Sc|Ac und]
+5.1 +3.3 88 +4  1017.5  -0.4  722  285           
03 17.04.11 280 (З) 10 км  слаб. дождь  10/6 400 м средняя 
[Sc|Ac und]
+3.7 +2.4 91 +1  1018.3  0.5  723  287           
06 17.04.11 260 (З) 10 км  слаб. дождь  10/10 300 м 
[Ns]
+2.5 +1.7 94 1020.6  724  289  +3.7       
09 17.04.11 260 (З) >10 км  {дождь}  10/8 400 м средняя 
[Sc|Ac und]
+4.8 +2.3 84 +2  1020.8  0.6  725  286           
12 17.04.11 260 (З) >10 км  {дождь}  8/6 300 м кучево-дожд., средняя 
[Cb calv|Ac trans]
+9 +3.2 67 +7  1020.1  0.1  725  282           
15 17.04.11 290 (З) >10 км  слаб. ливневой дождь  9/6 500 м кучево-дожд., средняя 
[Cb cap|Ac trans]
+6.5 +2.6 76 +4  1022.1  1.5  726  285    +9.1       
18 17.04.11 280 (З) >10 км    3/0 средняя 
[Ac trans]
+4.8 +2 82 +4  1024.1  1.5  727  287    +9.1     
21 17.04.11 260 (З) >10 км    3/0 средняя 
[Ac trans]
+1.6 +0.2 91 -1  1024.8  727  291           
00 18.04.11 260 (З) >10 км    3/0 средняя 
[Ac trans]
+0.8 -0.4 92 -2  1024.6  -0.4  727  292           
03 18.04.11 290 (З) >10 км    3/0 средняя 
[Ac trans]
+3.1 +0.4 82 +2  1024.1  0.1  727  289           
06 18.04.11 320 (СЗ) >10 км    3/3 600 м 
[Cu med, cong]
+7.6 +1 63 +7  1023.5  0.3  727  285  +0.3    0.0     
09 18.04.11 360 (С) >10 км    6/6 700 м 
[Cu med, cong]
+11 -0.3 46 +11  1021  -1.8  726  281           
12 18.04.11 220 (ЮЗ) >10 км    5/3 600 м верхняя 
[Cu hum|Ci fib]
+12.1 -0.2 43 +13  1019.5  -1.2  725  280           
15 18.04.11 100 (В) >10 км    8/0 верхняя 
[Ci fib]
+11.4 +1.1 49 +11  1017.7  -1.8  723  280    +13.1       
18 18.04.11 090 (В) >10 км    4/0 верхняя 
[Ci fib]
+5.9 +1.7 74 +4  1017.5  -1.2  722  285    +13.1       
21 18.04.11 080 (В) >10 км    5/0 верхняя 
[Ci fib]
+5.1 +1.1 75 +6  1015.7  -1.8  721  285           
00 19.04.11 170 (Ю) >10 км    5/0 верхняя 
[Ci fib]
+5.1 +0.4 72 +4  1014.6  -1.1  720  285           
03 19.04.11 тихо ()   >10 км    6/0 средняя, верхняя 
[Ac trans|Ci fib]
+4.5 +1.2 79 +5  1013.7  -1  719  285           
06 19.04.11 120 (ЮВ) >10 км    8/3 1000 м средняя 
[Sc|Ac trans]
+11.4 +2.5 54 +13  1010.8  -1.5  718  277  +2.5         
09 19.04.11 020 (С) >10 км    8/0 средняя 
[Ac trans]
+15.1 +1.6 40 +16  1009.3  -0.7  718  274           
12 19.04.11 120 (ЮВ) >10 км    6/0 средняя 
[Ac trans]
+17.5 +3.7 40 +19  1007.5  -1.3  717  271           
15 19.04.11 030 (СВ) >10 км    8/0 средняя 
[Ac trans]
+15 +4.1 48 +15  1006.8  -1.1  716  273    +17.7       
18 19.04.11 050 (СВ) >10 км    8/0 средняя 
[Ac trans]
+11 +4 62 +11  1006.6  -0.9  715  276    +17.7       
21 19.04.11 310 (СЗ) >10 км    8/0 средняя 
[Ac trans]
+11.1 +4 62 +12  1005.2  -1.3  714  276           
00 20.04.11 010 (С) >10 км    10/3 1000 м кучево-дожд., средняя 
[Cb calv|Ac und]
+10.1 +5 71 +11  1004.4  -1  714  276           
03 20.04.11 350 (С) >10 км  слаб. ливневой дождь  9/6 1000 м кучево-дожд., средняя 
[Cb cap|Ac trans]
+8.5 +7 90 +8  1004.8  0.2  714  278           
06 20.04.11 010 (С) >10 км  {ливн. осадки}  9/4 1000 м кучево-дожд., средняя, верхняя 
[Cb calv|Ac trans|Ci fib]
+9.9 +7 82 +9  1005.2  0.2  714  276  +8.5       
09 20.04.11 360 (С) 0200 м  туман{ливн. осадки}  ?/?  
+7.6 +7.2 97 +5  1006.8  1.1  715  279           
12 20.04.11 020 (С) 1000 м  сильн. морось{ливн. осадки}  10/10 50 м 
[St]
+5 +7.2 100 +2  1006.8  1.2  716  282           
15 20.04.11 020 (С) 4000 м  дождь{морось}  10/10 150 м 
[Ns]
+2.8 +2.6 99 -1  1012  2.7  718  286    +12.1       
18 20.04.11 040 (СВ) >10 км  слаб. снег{дождь, морось}  10/10 150 м 
[Ns]
+2 +1.7 98 1013.7  1.5  719  287    +12.1     
21 20.04.11 010 (С) 10 км  слаб. дождь{снег}  10/10 150 м 
[Ns]
+2.1 +1.7 97 -1  1014.4  0.7  720  287           
00 21.04.11 350 (С) 1200 м  сильн. снег{дождь}  10/10 100 м 
[Ns]
+0.1 -0.1 99 -2  1016.6  1.7  721  290           
03 21.04.11 330 (СЗ) 1200 м  сильн. снег  10/10 60 м 
[Ns]
+0 -0.1 99 -2  1018.3  1.5  722  291        равномерный
мокрый или
старый снег
100% 
06 21.04.11 320 (СЗ) 2000 м  снег  10/10 50 м 
[Ns]
+0.6 +0.5 99 -1  1020.5  2.2  724  291  -0.1       
09 21.04.11 280 (З) >10 км  слаб. дождь{снег}  10/10 120 м 
[Ns]
+3.1 +1.8 91 +2  1022.3  2.2  725  289           
12 21.04.11 300 (СЗ) >10 км  в посл. час ливневой дождь{снег}  9/8 360 м кучево-дожд., средняя 
[Cb calv|Ac trans]
+4.6 +1.3 79 +4  1023.5  1.4  726  288           
15 21.04.11 270 (З) >10 км  в посл. час ливневой дождь  9/8 480 м кучево-дожд., средняя 
[Cb calv|Ac trans]
+4 +2.1 87 +4  1024.8  1.1  727  288    +7.5       
18 21.04.11 190 (Ю) >10 км  {ливн. осадки}  6/3 600 м кучево-дожд., средняя 
[Cb calv|Ac trans]
+2.4 +1.3 92 +2  1027  1.8  729  291    +7.5     
21 21.04.11 270 (З) >10 км    4/0 средняя 
[Ac trans]
+1.3 +0.5 94 +2  1027.7  0.4  729  292           
00 22.04.11 120 (ЮВ) >10 км    3/0 средняя 
[Ac trans]
+1 -0.5 90 1027.4  -0.4  729  293           
03 22.04.11 100 (В) >10 км    3/0 верхняя 
[Ci fib]
+0.1 -0.5 96 -2  1027.9  0.3  729  294           
06 22.04.11 090 (В) >10 км    8/3 300 м верхняя 
[Sc|Ci fib]
+6 +2.4 78 +3  1026.2  -0.5  729  287  -1.4         
09 22.04.11 100 (В) >10 км    8/8 480 м кучево-дожд. 
[Cb calv]
+8.2 +1.3 62 +5  1025.1  -0.6  728  285           
12 22.04.11 100 (В) 10  >10 км    9/9 630 м 
[Sc diur, vesp]
+8.2 +2 65 +5  1023.6  -1.5  727  284           
15 22.04.11 100 (В) >10 км    10/5 600 м средняя 
[Sc|Ac und]
+7 +2 70 +4  1022.6  -1.1  726  285    +9       
18 22.04.11 090 (В) >10 км    10/0 средняя 
[Ac und]
+6.1 +1.3 71 +3  1022.2  -0.7  726  286    +9.4       
21 22.04.11 100 (В) н/о    н/о 
+3.6 +0.6 81 1021.2  725  288           
00 23.04.11 100 (В) н/о    н/о 
+2.1 +0.4 89 -2  1019.7  -1.7  723  289           
03 23.04.11 100 (В) н/о    н/о 
+3.4 +1.8 89 1019.7  -1.7  724  288           
06 23.04.11 090 (В) >10 км    10/8 300 м средняя 
[Sc|Ac und]
+3.9 +1.9 87 1020.2  0.5  724  287  +2.2         
09 23.04.11 070 (В) >10 км  слаб. ливневой дождь  10/8 210 м кучево-дожд., средняя 
[Cb cap|Ac und]
+4.3 +2.6 89 +1  1020.5  0.4  724  287           
12 23.04.11 090 (В) н/о    н/о 
+4.6 +3.7 94 +2  1020.3  -0.2  724  286           
15 23.04.11 060 (СВ) >10 км  слаб. ливневой дождь  10/8 360 м кучево-дожд., средняя 
[Cb cap|Ac und]
+4.6 +3.4 92 +2  1020.5  -0.2  724  286           
18 23.04.11 //0 (С) //  10 км  в посл. час морось  н/о 
[St]
+4.3 +3.3 93 +4  1020.8  0.2  725  287    +5.3     
21 23.04.11 060 (СВ) 3000 м  дымка  10/10 100 м 
[St]
+3.8 +3.1 95 +1  1021  0.1  725  287           
00 24.04.11 060 (СВ) 0300 м  туман{морось}  ?/?  
+3.7 +3.7 100 +2  1020.6  -0.4  724  287           
03 24.04.11 070 (В) 2000 м  дымка{туман}  10/10 120 м 
[St]
+3.3 +2.6 95 +1  1020.7  724  288           
06 24.04.11 060 (СВ) н/о    н/о 
+4.1 +3.5 96 +2  1022.4  1.3  726  287  +3.2         
09 24.04.11 060 (СВ) н/о    н/о 
+6.4 +3.9 84 +5  1022  0.1  726  285           
12 24.04.11 060 (СВ) н/о    н/о 
+6.7 +3.3 79 +6  1022.5  0.5  726  285           
15 24.04.11 120 (ЮВ) >10 км    10/10 300 м 
[Sc]
+6.4 +5 91 +5  1022.9  0.4  726  285           
18 24.04.11 170 (Ю) >10 км    3/0 верхняя 
[Ci fib]
+3.9 +1.9 87 +3  1024.2  0.4  727  288    +7.1       
21 24.04.11 170 (Ю) >10 км    3/0 верхняя 
[Ci sp]
+2.2 +0.6 89 +1  1023.9  -0.6  726  290           
00 25.04.11 150 (ЮВ) >10 км    3/0 верхняя 
[Ci fib]
+2 +0.4 89 +1  1023.9  -0.1  726  290           
03 25.04.11 100 (В) >10 км    3/0 верхняя 
[Ci fib]
+1.2 -0.2 90 +1  1024.3  0.3  727  291           
06 25.04.11 100 (В) >10 км    1/0 верхняя 
[Ci fib]
+8.5 +3 68 +7  1023.4  0.6  727  284  +1         
09 25.04.11 100 (В) >10 км    3/0 верхняя 
[Cu hum|Ci fib]
+13.9 +4.8 54 +13  1021.6  726  278           
12 25.04.11 100 (В) >10 км    4/4 600 м 
[Cu hum]
+15.5 +3.4 44 +14  1019.9  -1.3  725  276           
15 25.04.11 100 (В) >10 км    3/3 600 м 
[Cu hum]
+13.5 +3.5 51 +12  1019.7  -0.6  725  278           
18 25.04.11 090 (В) >10 км    3/0 верхняя 
[Ci fib]
+8.3 +4.2 75 +7  1020.9  -0.6  725  283    +15.6       
21 25.04.11 100 (В) >10 км    3/0 верхняя 
[Ci fib]
+5.7 +3.7 87 +4  1020.6  -0.7  725  285           
00 26.04.11 080 (В) >10 км    ясно 
+3.7 +2.4 91 +2  1020.4  -0.6  724  287           
03 26.04.11 090 (В) >10 км    3/0 верхняя 
[Ci fib]
+4.9 +3.3 89 +3  1020.5  0.3  724  286           
06 26.04.11 120 (ЮВ) 10  >10 км    3/0 верхняя 
[Ci fib]
+13 +4.3 55 +11  1019.7  0.7  725  278  +3.2         
09 26.04.11 110 (В) >10 км    3/1 600 м верхняя 
[Cu hum|Ci fib]
+16.1 +2.7 41 +15  1018.4  -0.7  724  275           
12 26.04.11 100 (В) >10 км    4/3 600 м верхняя 
[Cu hum|Ci fib]
+17 +2.6 38 +16  1017.7  -0.5  724  274           
15 26.04.11 090 (В) >10 км    4/0 средняя, верхняя 
[Ac trans|Ci fib]
+14.7 +2.2 43 +14  1018.4  0.3  724  277    +17.2       
18 26.04.11 100 (В) >10 км    ясно 
+10 +4.6 69 +8  1020.3  725  281    +17.2       
21 26.04.11 100 (В) >10 км    ясно 
+7.7 +5.5 86 +6  1020.2  -0.5  725  283           
00 27.04.11 100 (В) >10 км    ясно 
+6.3 +4.5 88 +4  1020.5  725  285           
03 27.04.11 100 (В) >10 км    6/0 средняя, верхняя 
[Ac trans|Ci fib]
+6 +4.7 91 +4  1021.7  1.1  725  285           
06 27.04.11 100 (В) >10 км    8/1 1000 м средняя 
[Sc|Ac trans]
+11.8 +5.6 66 +10  1021.2  0.6  726  279  +5.7         
09 27.04.11 100 (В) 11{19}  >10 км    8/5 1000 м средняя 
[Sc|Ac trans]
+14 +3.9 51 +12  1020.2  -0.5  725  277           
12 27.04.11 100 (В) 12{19}  >10 км    8/4 1000 м средняя 
[Sc|Ac trans]
+16 +4.1 45 +15  1018.4  -1.4  724  275           
15 27.04.11 110 (В) >10 км    9/5 1000 м средняя 
[Sc|Ac trans]
+15.6 +5.2 50 +15  1017.8  -0.6  724  275    +17.1       
18 27.04.11 090 (В) >10 км    6/0 средняя 
[Ac trans]
+11.3 +4.9 65 +10  1018.6  724  279    +17.1       
21 27.04.11 100 (В) >10 км    4/0 средняя 
[Ac trans]
+8.6 +5.7 82 +6  1017.8  -1.2  723  281           
00 28.04.11 090 (В) >10 км    ясно 
+7.2 +4.2 81 +5  1017  -1  722  283           
03 28.04.11 110 (В) >10 км    4/0 средняя 
[Ac trans]
+8.4 +4.2 75 +6  1016.5  -0.2  722  282           
06 28.04.11 110 (В) >10 км    6/0 верхняя 
[Ci fib]
+13.6 +5.8 59 +12  1015  -0.5  722  276  +6.5         
09 28.04.11 110 (В) 10  >10 км    8/3 600 м верхняя 
[Cu hum|Ci fib]
+17.5 +7.4 52 +17  1013.1  -1.1  721  272           
12 28.04.11 110 (В) 11{18}  >10 км    8/4 600 м верхняя 
[Cu hum|Ci fib]
+19 +6.9 45 +19  1011.1  -1.6  720  270           
15 28.04.11 110 (В) 11  >10 км    8/0 средняя, верхняя 
[Ac trans|Ci fib]
+16.6 +6.6 52 +16  1011  -0.5  719  272    +19.5       
18 28.04.11 110 (В) >10 км    6/0 средняя, верхняя 
[Ac trans|Ci sp]
+12.1 +6.6 69 +10  1012.5  0.7  720  277    +19.5       
21 28.04.11 110 (В) >10 км    4/0 средняя 
[Ac trans]
+9.5 +5.4 76 +7  1012  -1  719  279           
00 29.04.11 110 (В) >10 км    4/0 средняя 
[Ac trans]
+7.8 +4.1 77 +6  1010.8  -1.4  718  281           
03 29.04.11 100 (В) >10 км    10/0 средняя, верхняя 
[Ac As|Ci]
+8.8 +4.3 73 +6  1009.9  -0.7  717  279           
06 29.04.11 100 (В) 13  >10 км    ясно 
+12.2 +5.7 64 +10  1008.6  -0.6  717  276  +7.2         
09 29.04.11 110 (В) 12{20}  >10 км    10/3 600 м средняя 
[Sc|Ac und]
+15.6 +6.8 56 +14  1006.9  -0.6  716  272           
12 29.04.11 100 (В) >10 км    10/5 600 м средняя 
[Sc|Ac und]
+16 +7.9 59 +15  1006.9  0.1  716  271           
15 29.04.11 090 (В) >10 км    10/3 600 м средняя 
[Sc|Ac und]
+14.3 +8.1 66 +13  1006.5  0.1  716  273    +17.2       
18 29.04.11 100 (В) >10 км    10/5 1000 м средняя 
[Sc|Ac und]
+12 +7.7 75 +10  1007.4  0.5  716  275    +17.2       
21 29.04.11 100 (В) >10 км    10/3 1000 м средняя 
[Sc|Ac und]
+9.9 +7.3 84 +8  1007.8  716  277           
00 30.04.11 110 (В) >10 км    10/4 1000 м средняя 
[Sc|Ac und]
+8.6 +7.1 90 +7  1007.3  -0.7  716  278           
03 30.04.11 110 (В) 10 км  слаб. ливневой дождь  10/8 150 м кучево-дожд., средняя 
[Cb cap|Ac und]
+8.3 +7.9 97 +8  1007.1  -0.3  715  278           
06 30.04.11 130 (ЮВ) >10 км  в посл. час ливневой дождь  9/6 240 м кучево-дожд., средняя 
[Cb calv|Ac trans]
+10.5 +8.4 87 +11  1007  0.3  716  276  +8.1    0.0     
09 30.04.11 030 (СВ) >10 км    8/4 600 м средняя, верхняя 
[Cu hum|Ac trans|Ci fib]
+15.9 +9.9 67 +19  1005.9  0.1  716  271           
12 30.04.11 340 (С) >10 км    10/8 700 м кучево-дожд., средняя 
[Cb calv|Ac und]
+16.2 +9.5 64 +17  1006.6  0.6  716  271           
15 30.04.11 330 (СЗ) >10 км  слаб. ливневой дождь  10/8 720 м кучево-дожд., средняя 
[Cb calv|Ac und]
+13.7 +12.3 91 +19  1007.7  0.6  717  272    +17.8       
18 30.04.11 310 (СЗ) >10 км  {ливн. осадки}  5/3 300 м кучево-дожд., средняя 
[Cb calv|Ac trans]
+11.6 +10.7 94 +14  1009.1  0.6  717  275    +17.8  0.7     
21 30.04.11 300 (СЗ) >10 км    8/5 210 м кучево-дожд., средняя 
[Cb calv|Ac trans]
+10.9 +10.4 97 +13  1009.5  0.2  717  276           
00 01.05.11 290 (З) >10 км    10/5 630 м средняя 
[Sc diur, vesp|Ac und]
+10.8 +9.3 90 +11  1010.5  0.9  718  277           
03 01.05.11 300 (СЗ) >10 км    8/8 180 м 
[Sc diur, vesp]
+10.4 +9 91 +11  1010.8  0.2  718  277           
06 01.05.11 280 (З) >10 км    8/6 330 м кучево-дожд., средняя 
[Cb calv|Ac und]
+12.5 +10 85 +14  1011.6  1.2  719  275  +9.8         
09 01.05.11 220 (ЮЗ) >10 км    10/8 500 м кучево-дожд., средняя 
[Cb calv|Ac und]
+15.2 +10.3 73 +19  1010.6  -0.5  719  272           
12 01.05.11 300 (СЗ) >10 км    8/5 630 м кучево-дожд., средняя 
[Cb calv|Ac und]
+17 +9.7 62 +19  1010.2  0.1  719  271           
15 01.05.11 310 (СЗ) >10 км    10/3 600 м средняя, верхняя 
[Sc diur, vesp|Ac trans|Ci fib]
+15.3 +8.7 65 +15  1010.8  0.3  719  273    +17.8       
18 01.05.11 310 (СЗ) >10 км    4/0 средняя 
[Ac trans]
+12.9 +8 72 +13  1011.9  0.6  719  275    +17.8       
21 01.05.11 360 (С) >10 км    6/0 средняя 
[Ac trans]
+11.9 +8.4 79 +12  1011.9  -0.2  719  276           
00 02.05.11 360 (С) >10 км    6/0 средняя 
[Ac As]
+11.4 +8.3 81 +13  1011.8  -0.2  719  277           
03 02.05.11 340 (С) >10 км    10/4 1000 м средняя 
[Sc|Ac und]
+11.5 +8.3 81 +13  1011.9  0.2  719  277           
Время (UTC), дата Ветер
(°,м/с) 
Видим.   Явления Облачность Т
(°С)
Тd
(°С)
f(%) Тe
(°С)
Pmin
(гПа)
dP
(гПа)
Po
(мм)
O2
(г/м3)
Тmin Tmax R s Состояние
почвы